STARLINK-1973 (47628 NORAD) Tracking and Keplerian Element Data

This shows tracking and keplerian element data for the satellite.

Feedback or suggestion? Click here.




ElementValue
Catalog47628
NameSTARLINK-1973
Epoch Orbit183
Epoch Day56.91667824
Epoch Year2021
RAAN53.6509
Inclination53.0492
Eccentricity0.0001139
Argument of Perigee67.5621
Mean Anonmoly31.3318
Mean Motion15.79731986
Decay Rate-0.01069251
L11 47628U 21012J 21056.91667824 -.01069251 00000-0 -63356-2 0 9991
L22 47628 53.0492 53.6509 0001139 67.5621 31.3318 15.79731986 1838

Live tracking and technical data element details for STARLINK-1973 (NORAD 47628). STARLINK-1973 can be tracked NOW for your location showing map with azimuth and elevation plus other details from your city location.

Track the satellite on the map from your city or location and see movement details for azimuth, elevation, latitude, longitude, range, height, and movement on the map or in text.







IsCatalogInMostPopularTable: catalog: 47628, numindb: 1
Update: records affected: 1



GetName: 47628 STARLINK-1973

Hit Count: updated at: Fri, 26 Feb 2021 09:32:19 GMT